{"data":{"norad_id":66238,"epoch":"2026-05-24T19:53:04.717248Z","epoch_age_seconds":90168,"freshness":"FRESH","line1":"1 66238U 25245E   26144.82852682  .00034820  00000+0  10370-2 0  9990","line2":"2 66238  53.1577 288.8285 0001079  86.3762 273.7364 15.34397956 32936","mean_motion":15.34397956,"eccentricity":0.0001079,"inclination_deg":53.1577,"raan_deg":288.8285,"arg_perigee_deg":86.3762,"mean_anomaly_deg":273.7364,"bstar":0.001037,"rev_number":3293,"period_min":93.847883097675,"perigee_km":461.97118809517,"apogee_km":463.44744273004,"semimajor_km":6840.8463154126,"source":"CELESTRAK","updated_at":"2026-05-25T13:38:21.133965Z"}}